EHI
0 0 0 0 0 0 0 0 0 0 0 0 0 0 0 0 0 0 0 0 0 0 0 0 1 3 3 2 1 0 0 0 0 0 0 0 0 0 0 0 0 0 0
0 0 0 0 0 0 0 0 0 0 0 0 0 0 0 0 0 0 0 0 0 0 0 1 2 3 2 1 0 0 0 0 0 0 0 0 0 0 0 0 0 0 0
0 0 0 0 0 0 0 0 0 0 0 0 0 0 0 0 0 0 0 0 0 0 0 1 2 2 1 0 0 0 0 0 0 0 0 0 0 0 0 0 0 0 0
0 0 0 0 0 0 0 0 0 0 0 0 0 0 0 0 0 0 0 0 0 0 0 0 1 1 0 0 0 0 0 0 0 0 0 0 0 0 0 0 0 0 0
0 0 0 0 0 0 0 0 0 0 0 0 0 0 0 0 0 0 1 0 0 0 0 0 0 0 0 0 0 0 0 0 0 0 0 0 0 0 0 0 0 0 0
0 0 0 0 0 0 0 0 0 0 0 0 0 0 0 0 0 0 0 0 0 0 0 0 0 0 0 0 0 0 1 1 0 0 0 0 0 0 0 0 0 0 0
0 0 0 0 0 0 0 0 0 0 0 0 0 0 0 0 0 0 0 0 0 0 0 0 0 0 0 0 0 0 1 1 0 0 0 0 0 0 0 0 0 0 0
0 0 0 0 0 0 0 0 0 0 0 0 0 0 0 0 0 0 0 0 0 0 0 0 0 0 0 0 0 0 0 0 0 0 0 0 0 0 0 0 0 0 0
0 0 0 0 0 1 0 0 0 0 0 0 0 0 0 0 0 0 0 0 0 0 0 0 0 0 0 0 0 0 0 0 0 0 0 0 0 0 0 0 0 0 0
0 0 0 0 0 0 0 0 1 1 0 0 0 0 0 0 0 0 0 0 0 0 0 0 0 0 1 1 1 1 0 0 0 0 0 1 1 0 0 0 0 0 0
0 0 0 0 0 0 0 0 1 1 1 1 0 0 1 0 0 0 0 0 0 0 0 0 1 1 2 2 2 2 1 0 0 0 1 1 1 0 0 0 0 0 0
1 0 0 0 0 0 0 0 1 1 0 0 0 0 0 0 0 0 0 0 0 0 1 1 1 2 2 2 2 3 1 0 0 0 1 2 1 0 0 0 0 0 0
2 1 0 0 0 0 0 0 0 0 0 0 0 0 0 0 0 0 0 0 0 0 0 0 1 1 1 0 1 1 0 0 0 0 1 2 1 1 1 1 0 0 0
2 1 1 0 0 0 0 0 1 0 0 0 0 0 0 0 0 0 0 0 0 0 0 0 0 0 0 0 0 0 0 0 0 0 1 2 2 2 2 1 0 0 0
1 1 1 0 0 0 0 0 1 0 0 0 0 0 1 1 1 1 1 1 0 0 0 0 0 0 0 0 0 0 0 0 1 1 1 1 1 1 1 1 0 0 0
2 1 0 0 0 0 0 0 1 0 0 0 0 1 2 2 3 3 3 2 1 0 0 0 0 0 0 0 0 0 0 1 2 2 1 0 0 0 0 0 0 0 0
1 1 0 0 0 0 1 1 1 0 0 0 0 1 3 4 4 4 3 2 1 0 0 0 0 0 0 0 0 0 1 2 3 2 1 0 0 1 1 0 0 0 0
2 1 1 0 0 1 2 2 1 1 1 1 1 3 6 8 7 5 3 1 1 1 1 0 0 0 0 0 0 1 2 3 2 1 0 0 0 0 1 1 1 0 0
5 4 3 2 2 2 3 3 3 2 2 2 3 5 8 10 9 7 4 2 1 1 1 0 0 0 0 0 0 1 2 2 1 0 0 0 0 0 1 1 1 0 0
5 5 6 6 6 5 4 3 3 2 2 2 3 5 7 7 8 8 6 3 1 1 0 0 0 0 1 1 1 1 1 0 0 0 0 0 0 0 0 1 1 0 0
5 8 10 11 10 7 5 3 1 1 1 1 1 2 3 4 5 6 5 3 3 2 1 2 2 2 2 2 2 0 0 0 0 0 0 1 0 0 0 1 1 1 1
10 12 13 14 13 10 6 3 1 0 0 0 1 1 1 1 3 4 3 4 5 5 4 5 6 5 3 3 3 2 0 0 0 1 1 1 0 0 0 0 1 1 1
14 13 13 15 16 14 9 5 3 2 1 1 1 1 1 1 3 4 4 5 7 8 7 7 9 9 6 5 5 3 1 1 1 2 2 1 1 1 0 0 1 2 3
14 12 13 16 19 18 14 11 9 6 3 2 2 2 2 2 4 5 6 6 8 8 7 7 8 9 8 7 6 4 3 2 1 1 1 1 2 2 1 1 2 4 4
11 11 14 21 25 23 19 17 15 10 6 5 4 4 4 4 6 7 6 6 6 7 6 5 5 5 6 6 5 5 5 4 1 0 0 1 2 2 2 3 5 5 4
10 9 15 25 30 26 21 19 17 13 9 8 7 6 6 7 7 7 7 6 5 5 6 5 4 4 4 4 4 5 7 6 2 0 0 1 3 2 2 5 6 5 3
Wind_Speed
7 10 11 12 13 13 14 15 15 15 15 15 16 16 16 16 16 16 16 16 16 16 16 16 16 16 16 16 16 16 15 15 16 16 16 15 14 13 12 12 12 13 15
9 11 12 12 13 13 14 14 15 15 15 15 15 15 15 16 16 16 16 16 16 16 16 16 16 16 16 16 15 15 15 15 15 15 15 14 14 12 10 9 9 12 14
9 11 12 12 12 13 13 14 14 15 15 15 14 14 14 14 15 15 16 16 16 16 16 16 16 16 15 15 14 14 14 13 13 11 10 11 13 12 11 12 13 14 13
9 10 12 12 12 13 13 13 13 14 14 14 14 14 13 15 15 15 15 15 16 15 15 15 15 15 14 14 13 13 13 12 10 7 6 9 11 12 11 12 12 13 12
9 11 13 11 12 13 13 13 13 14 14 14 13 14 14 15 14 15 15 15 15 14 14 14 14 14 14 13 12 12 11 10 6 4 8 9 10 11 10 11 11 12 11
10 11 13 11 12 12 13 13 13 13 13 13 13 14 14 14 14 15 15 14 13 13 13 13 13 13 12 11 11 11 9 7 6 7 7 7 9 10 10 11 11 11 11
10 11 13 11 11 11 11 12 12 13 13 13 13 13 13 13 13 14 14 13 13 12 12 12 12 11 10 10 9 9 6 2 3 7 6 7 9 10 9 9 9 10 10
10 11 12 11 10 10 11 11 11 12 12 12 12 12 12 12 12 13 12 12 12 12 11 11 10 10 9 9 8 7 4 3 5 7 7 8 10 8 8 9 9 9 9
9 9 8 10 10 10 10 10 10 11 11 11 11 12 12 12 11 11 11 11 11 11 10 9 9 9 8 8 7 6 3 2 2 5 6 7 9 8 8 8 8 8 7
7 7 8 8 7 8 10 10 10 10 10 10 10 10 10 11 10 10 10 10 9 8 8 8 7 7 7 6 6 5 4 5 3 6 5 9 9 7 7 7 7 7 7
7 6 6 7 7 7 8 10 9 9 8 8 8 8 5 6 8 7 11 9 8 7 7 7 6 5 5 7 6 5 6 2 4 3 5 10 7 6 6 6 6 6 6
7 7 5 5 6 6 6 6 4 5 5 4 5 5 4 4 4 6 10 7 6 6 6 6 5 6 6 5 8 8 3 3 3 3 7 10 7 6 5 5 5 5 5
7 6 6 5 3 4 4 4 3 3 3 4 5 4 3 3 4 3 4 6 5 5 4 6 6 2 1 2 1 1 2 1 2 2 7 8 6 5 5 5 5 5 5
6 6 5 5 4 2 2 2 2 3 3 3 4 2 3 2 2 3 1 2 2 2 2 1 1 2 1 1 1 1 1 1 1 2 6 8 5 4 4 5 5 5 5
6 6 5 3 3 2 2 1 2 2 2 3 2 2 1 2 2 2 2 0 0 1 2 1 1 1 0 1 1 1 0 1 1 1 5 8 6 4 4 4 4 5 6
5 5 5 4 3 2 2 1 1 1 2 1 2 2 1 1 2 1 1 1 0 0 1 0 1 1 0 0 0 1 0 0 1 1 2 7 7 5 4 4 4 4 5
6 5 5 5 4 3 2 2 1 1 2 1 2 2 1 1 1 1 1 1 1 1 1 1 0 1 1 1 1 1 1 1 1 1 0 1 5 7 5 4 4 5 5
5 5 5 4 5 4 2 2 1 1 0 1 1 1 1 1 1 1 1 0 1 1 1 1 1 1 0 0 1 1 1 2 2 2 2 2 1 2 6 5 4 4 4
6 6 6 4 4 4 3 2 2 1 1 1 1 1 1 2 2 2 1 0 1 1 1 2 1 1 1 1 1 1 1 1 1 2 1 1 1 1 1 6 6 3 3
7 7 6 5 4 4 3 3 2 2 2 2 1 1 2 2 2 2 2 1 2 1 1 1 1 1 1 1 1 0 1 1 1 1 2 1 1 1 1 1 3 4 4
8 7 7 6 5 4 3 3 2 2 2 2 2 1 2 2 2 2 3 1 3 2 2 2 2 3 2 2 2 1 1 1 1 1 1 0 1 1 1 1 1 1 2
9 8 8 8 6 6 4 3 2 2 2 2 2 1 2 2 2 3 3 3 2 2 2 2 3 3 2 2 2 2 2 2 1 1 1 1 1 1 1 1 1 1 1
10 9 7 7 7 6 5 4 3 3 3 2 2 2 2 2 2 3 3 4 3 3 2 3 4 4 3 3 2 3 2 1 1 2 1 1 1 0 1 1 2 1 1
10 9 8 7 7 6 6 5 5 3 3 2 2 2 2 2 2 2 3 3 4 3 2 4 4 4 4 3 3 3 3 2 2 1 2 2 1 1 0 1 1 1 1
10 9 8 8 7 7 6 6 5 5 4 2 2 2 3 2 2 2 2 3 3 3 3 3 3 4 3 3 3 2 2 2 3 2 1 1 1 0 0 0 0 1 1
10 9 8 8 8 7 7 6 6 5 4 3 3 3 3 2 2 2 2 2 3 2 3 3 3 3 3 3 3 2 2 2 3 2 3 2 1 1 0 1 0 1 1
Wind_Direction
74 78 75 77 79 82 83 84 86 87 91 92 93 92 94 95 96 96 98 100 102 102 102 103 103 102 101 101 101 102 103 104 104 105 106 105 106 108 112 120 125 110 111
84 85 83 80 82 84 85 86 87 88 90 90 92 92 93 95 96 96 96 99 101 100 101 102 101 101 101 101 102 102 103 105 107 109 113 112 107 106 107 101 86 104 116
89 90 93 83 85 86 87 88 89 90 91 90 89 91 94 97 98 98 98 99 99 99 99 103 102 101 102 102 102 103 103 104 108 118 136 121 110 108 105 101 103 113 115
93 92 85 89 88 88 88 89 91 92 92 92 90 90 93 99 98 97 98 99 99 99 99 100 101 101 102 103 104 105 106 108 117 152 130 108 111 109 111 111 112 114 117
94 93 89 86 88 87 87 88 90 92 93 92 91 91 91 97 99 99 98 98 99 100 100 99 99 100 103 104 105 107 110 116 140 155 100 104 106 113 118 120 119 119 119
101 94 92 87 88 88 88 88 88 90 92 94 93 93 93 95 96 97 97 98 98 100 100 99 99 101 104 106 107 109 116 138 177 107 105 108 106 116 122 123 124 122 121
101 98 97 91 90 90 91 91 90 90 92 93 93 93 93 94 96 97 97 97 97 99 101 100 102 104 106 108 110 113 119 174 120 102 106 99 98 114 122 124 127 126 125
102 100 104 102 95 93 92 93 93 93 92 93 93 93 94 94 95 97 98 97 97 97 99 100 101 104 107 109 110 116 133 237 121 106 109 104 104 122 125 124 123 125 129
99 102 107 112 114 108 98 94 94 93 94 95 95 95 94 94 96 98 98 97 98 100 102 103 105 106 108 111 112 118 127 274 116 108 109 104 118 131 132 132 130 133 135
103 103 105 101 106 115 114 102 97 95 96 99 99 100 105 109 110 114 115 102 102 104 106 108 111 112 112 114 119 126 168 225 127 117 110 109 128 141 143 140 141 143 147
114 107 109 114 116 112 110 113 118 114 108 120 115 115 136 121 117 128 94 101 106 109 111 116 118 124 141 142 138 162 207 189 110 96 95 109 136 146 152 153 154 156 159
129 125 120 114 117 113 109 117 119 116 114 107 98 113 114 98 92 97 111 111 111 119 130 134 146 178 208 159 155 192 189 126 113 112 104 122 141 154 161 164 164 166 170
135 132 130 118 105 105 114 115 104 107 112 116 107 113 109 125 123 120 128 139 142 160 150 148 184 174 129 83 86 138 81 90 106 110 113 132 149 166 173 174 176 177 180
143 137 132 133 131 106 88 108 136 124 119 108 109 117 118 105 101 99 107 106 138 130 110 129 127 95 68 98 121 79 120 144 111 112 116 138 156 173 182 187 192 193 198
149 148 139 143 134 135 121 165 111 103 102 108 109 103 93 108 100 103 100 88 137 113 153 153 82 91 152 155 171 142 105 88 94 131 124 141 157 172 186 194 205 212 211
160 153 148 158 145 151 159 155 132 132 120 112 117 105 90 87 96 114 156 156 120 179 55 40 126 168 218 128 151 126 231 170 130 146 142 146 159 173 191 203 212 216 216
161 153 159 164 162 168 177 191 175 169 157 140 118 122 158 159 124 232 167 191 152 139 146 227 245 225 201 176 167 179 190 213 152 130 171 163 159 170 187 199 204 212 221
168 163 171 177 167 176 186 220 227 241 175 183 175 155 180 212 212 255 239 227 180 220 201 203 230 247 203 208 177 229 193 172 192 192 192 188 215 181 168 173 193 207 220
175 174 180 185 181 187 189 202 216 207 247 242 225 210 193 225 227 244 260 35 243 247 257 263 115 265 212 196 182 184 224 196 181 201 204 204 198 236 214 158 170 185 217
178 180 184 186 192 200 199 200 216 211 216 225 226 239 251 237 228 253 233 239 255 230 231 266 267 250 253 240 264 86 268 243 196 192 216 198 193 212 244 218 178 174 173
182 186 189 193 187 201 209 219 217 213 220 230 226 211 243 258 245 257 277 248 265 258 262 248 248 224 220 206 218 212 190 196 171 193 215 201 134 119 86 68 291 282 158
188 192 194 196 195 205 205 221 237 266 254 244 266 222 248 255 256 242 264 267 256 258 252 253 249 250 227 211 236 240 214 185 150 108 125 122 72 117 120 113 87 61 355
193 195 196 197 196 205 209 211 211 215 242 232 236 227 246 258 262 293 280 278 277 264 245 241 239 240 243 227 231 258 255 198 149 125 87 84 88 64 80 92 96 80 74
194 193 194 194 198 201 207 218 221 232 246 250 252 247 244 246 256 262 274 276 276 276 261 250 236 247 248 246 227 239 263 282 247 173 148 127 112 89 38 10 63 97 94
193 192 188 190 196 198 205 212 222 233 236 229 233 234 253 243 254 261 261 274 274 279 282 281 269 260 254 257 256 249 240 229 235 236 206 171 148 137 95 144 102 73 86
189 189 185 186 193 196 200 206 217 228 239 248 244 239 238 230 243 251 253 262 266 278 276 268 271 258 271 271 267 254 245 248 237 227 215 200 187 162 159 24 28 57 81